When you browse on this site, cookies collect data to enhance your experience and personalize the content and advertising you see.
Visit our Privacy Policy to learn more. By continuing to use the site, you agree to this use of cookies and data.
EN

Hourly Weather Aberaeron

Today, 9 July, Thursday

Time Temperature Precipitation Wind Pressure Humidity
00:00 +15°C° 0 mm 6 mps 750 mmHg 99%
01:00 +15°C° 0.8 mm 7 mps 749 mmHg 98%
02:00 +15°C° 0.8 mm 7 mps 749 mmHg 98%
03:00 +15°C° 0.8 mm 8 mps 748 mmHg 98%
04:00 +15°C° 0.5 mm 7 mps 749 mmHg 98%
05:00 +15°C° 0.5 mm 6 mps 749 mmHg 98%
06:00 +15°C° 0.5 mm 5 mps 749 mmHg 98%
07:00 +15°C° 0.2 mm 5 mps 749 mmHg 98%
08:00 +15°C° 0.2 mm 4 mps 750 mmHg 98%
09:00 +16°C° 0.2 mm 3 mps 750 mmHg 98%
10:00 +16°C° 0 mm 3 mps 750 mmHg 96%
11:00 +16°C° 0 mm 3 mps 750 mmHg 95%
12:00 +16°C° 0 mm 3 mps 751 mmHg 93%
13:00 +17°C° 0 mm 3 mps 751 mmHg 92%
14:00 +17°C° 0 mm 4 mps 751 mmHg 90%
15:00 +17°C° 0 mm 4 mps 751 mmHg 89%
16:00 +15°C° 0.1 mm 4 mps 751 mmHg 90%
17:00 +15°C° 0.1 mm 4 mps 751 mmHg 91%
18:00 +14°C° 0.1 mm 5 mps 751 mmHg 92%
19:00 +13°C° 0 mm 4 mps 752 mmHg 93%
20:00 +12°C° 0 mm 4 mps 752 mmHg 94%
21:00 +11°C° 0 mm 3 mps 753 mmHg 95%
22:00 +11°C° 0 mm 4 mps 753 mmHg 95%
23:00 +11°C° 0 mm 4 mps 753 mmHg 95%

Tomorrow, 10 July, Friday

Time Temperature Precipitation Wind Pressure Humidity
00:00 +9°C° 0 mm 5 mps 754 mmHg 95%
01:00 +9°C° 0 mm 5 mps 754 mmHg 93%
02:00 +8°C° 0 mm 5 mps 754 mmHg 91%
03:00 +8°C° 0 mm 5 mps 754 mmHg 89%
04:00 +9°C° 0 mm 6 mps 755 mmHg 89%
05:00 +9°C° 0 mm 6 mps 755 mmHg 89%
06:00 +9°C° 0 mm 6 mps 755 mmHg 89%
07:00 +10°C° 0 mm 7 mps 756 mmHg 85%
08:00 +11°C° 0 mm 7 mps 756 mmHg 81%
09:00 +12°C° 0 mm 8 mps 756 mmHg 78%
10:00 +12°C° 0 mm 8 mps 756 mmHg 77%
11:00 +14°C° 0 mm 7 mps 757 mmHg 76%
12:00 +14°C° 0 mm 7 mps 757 mmHg 75%
13:00 +14°C° 0 mm 6 mps 757 mmHg 74%
14:00 +14°C° 0 mm 6 mps 757 mmHg 74%
15:00 +14°C° 0 mm 5 mps 757 mmHg 73%
16:00 +14°C° 0 mm 5 mps 757 mmHg 75%
17:00 +14°C° 0 mm 4 mps 757 mmHg 76%
18:00 +14°C° 0 mm 4 mps 758 mmHg 78%
19:00 +13°C° 0 mm 3 mps 758 mmHg 83%
20:00 +11°C° 0 mm 3 mps 759 mmHg 87%
21:00 +10°C° 0 mm 2 mps 760 mmHg 92%
22:00 +10°C° 0 mm 3 mps 760 mmHg 92%
23:00 +10°C° 0 mm 3 mps 760 mmHg 92%

Day after tomorrow, 11 July, Saturday

Time Temperature Precipitation Wind Pressure Humidity
00:00 +10°C° 0 mm 4 mps 760 mmHg 93%
01:00 +10°C° 0 mm 4 mps 760 mmHg 93%
02:00 +10°C° 0 mm 4 mps 761 mmHg 93%
03:00 +10°C° 0 mm 4 mps 761 mmHg 94%
04:00 +10°C° 0 mm 4 mps 761 mmHg 93%
05:00 +10°C° 0 mm 3 mps 761 mmHg 92%
06:00 +11°C° 0 mm 3 mps 761 mmHg 91%
07:00 +12°C° 0 mm 3 mps 762 mmHg 87%
08:00 +13°C° 0 mm 4 mps 762 mmHg 83%
09:00 +14°C° 0 mm 4 mps 763 mmHg 78%
10:00 +14°C° 0 mm 4 mps 763 mmHg 77%
11:00 +15°C° 0 mm 4 mps 763 mmHg 76%
12:00 +16°C° 0 mm 3 mps 763 mmHg 74%
13:00 +16°C° 0 mm 3 mps 763 mmHg 74%
14:00 +16°C° 0 mm 3 mps 763 mmHg 74%
15:00 +16°C° 0 mm 3 mps 763 mmHg 74%
16:00 +16°C° 0 mm 3 mps 763 mmHg 75%
17:00 +15°C° 0 mm 2 mps 762 mmHg 77%
18:00 +15°C° 0 mm 2 mps 762 mmHg 79%
19:00 +13°C° 0 mm 1 mps 763 mmHg 82%
20:00 +12°C° 0 mm 1 mps 763 mmHg 86%
21:00 +9°C° 0 mm 0 mps 763 mmHg 89%
22:00 +10°C° 0 mm 1 mps 763 mmHg 88%
23:00 +10°C° 0 mm 1 mps 763 mmHg 87%

12 July, Sunday

Time Temperature Precipitation Wind Pressure Humidity
00:00 +9°C° 0 mm 1 mps 763 mmHg 87%
01:00 +9°C° 0 mm 1 mps 763 mmHg 86%
02:00 +9°C° 0 mm 1 mps 763 mmHg 85%
03:00 +9°C° 0 mm 1 mps 763 mmHg 85%
04:00 +10°C° 0 mm 1 mps 763 mmHg 84%
05:00 +11°C° 0 mm 1 mps 763 mmHg 84%
06:00 +12°C° 0 mm 1 mps 763 mmHg 83%
07:00 +14°C° 0 mm 1 mps 763 mmHg 79%
08:00 +15°C° 0 mm 1 mps 763 mmHg 75%
09:00 +18°C° 0 mm 1 mps 763 mmHg 71%
10:00 +17°C° 0 mm 2 mps 763 mmHg 69%
11:00 +18°C° 0 mm 2 mps 763 mmHg 67%
12:00 +19°C° 0 mm 2 mps 763 mmHg 65%
13:00 +19°C° 0 mm 2 mps 763 mmHg 66%
14:00 +19°C° 0 mm 2 mps 763 mmHg 67%
15:00 +19°C° 0 mm 3 mps 762 mmHg 68%
16:00 +18°C° 0 mm 2 mps 762 mmHg 71%
17:00 +18°C° 0 mm 2 mps 762 mmHg 74%
18:00 +18°C° 0 mm 1 mps 762 mmHg 76%
19:00 +15°C° 0 mm 1 mps 762 mmHg 80%
20:00 +14°C° 0 mm 1 mps 762 mmHg 84%
21:00 +12°C° 0 mm 1 mps 762 mmHg 88%
22:00 +12°C° 0 mm 1 mps 762 mmHg 88%
23:00 +11°C° 0 mm 1 mps 762 mmHg 87%

13 July, Monday

Time Temperature Precipitation Wind Pressure Humidity
00:00 +11°C° 0 mm 1 mps 762 mmHg 86%
01:00 +11°C° 0 mm 1 mps 762 mmHg 86%
02:00 +10°C° 0 mm 2 mps 761 mmHg 86%
03:00 +10°C° 0 mm 2 mps 761 mmHg 85%
04:00 +12°C° 0 mm 2 mps 761 mmHg 84%
05:00 +12°C° 0 mm 2 mps 761 mmHg 83%
06:00 +13°C° 0 mm 2 mps 761 mmHg 83%
07:00 +14°C° 0 mm 2 mps 760 mmHg 78%
08:00 +16°C° 0 mm 2 mps 760 mmHg 73%
09:00 +17°C° 0 mm 2 mps 760 mmHg 68%
10:00 +17°C° 0 mm 2 mps 760 mmHg 68%
11:00 +18°C° 0 mm 3 mps 760 mmHg 67%
12:00 +18°C° 0 mm 3 mps 760 mmHg 66%
13:00 +18°C° 0 mm 3 mps 759 mmHg 68%
14:00 +18°C° 0 mm 3 mps 759 mmHg 69%
15:00 +18°C° 0 mm 3 mps 759 mmHg 70%
16:00 +17°C° 0 mm 3 mps 758 mmHg 74%
17:00 +16°C° 0 mm 3 mps 758 mmHg 79%
18:00 +16°C° 0 mm 2 mps 758 mmHg 83%
19:00 +15°C° 0 mm 2 mps 758 mmHg 86%
20:00 +13°C° 0 mm 3 mps 758 mmHg 89%
21:00 +13°C° 0 mm 3 mps 758 mmHg 92%
22:00 +13°C° 0.2 mm 2 mps 758 mmHg 93%
23:00 +13°C° 0.2 mm 2 mps 758 mmHg 95%

14 July, Tuesday

Time Temperature Precipitation Wind Pressure Humidity
00:00 +13°C° 0.2 mm 2 mps 758 mmHg 96%
01:00 +13°C° 0.1 mm 2 mps 757 mmHg 96%
02:00 +12°C° 0.1 mm 2 mps 757 mmHg 96%
03:00 +12°C° 0.1 mm 2 mps 757 mmHg 95%
04:00 +12°C° 0.1 mm 2 mps 757 mmHg 95%
05:00 +12°C° 0.1 mm 1 mps 757 mmHg 95%
06:00 +12°C° 0.1 mm 1 mps 757 mmHg 95%
07:00 +13°C° 0 mm 2 mps 757 mmHg 95%
08:00 +13°C° 0 mm 2 mps 757 mmHg 94%
09:00 +13°C° 0 mm 3 mps 757 mmHg 94%
10:00 +14°C° 0.1 mm 3 mps 757 mmHg 90%
11:00 +15°C° 0.1 mm 4 mps 757 mmHg 86%
12:00 +15°C° 0.1 mm 5 mps 757 mmHg 83%
13:00 +15°C° 0 mm 5 mps 757 mmHg 81%
14:00 +15°C° 0 mm 5 mps 757 mmHg 79%
15:00 +15°C° 0 mm 5 mps 757 mmHg 77%
16:00 +15°C° 0 mm 4 mps 757 mmHg 77%
17:00 +14°C° 0 mm 4 mps 757 mmHg 77%
18:00 +13°C° 0 mm 4 mps 757 mmHg 78%
19:00 +12°C° 0 mm 3 mps 757 mmHg 82%
20:00 +12°C° 0 mm 2 mps 757 mmHg 86%
21:00 +9°C° 0 mm 2 mps 757 mmHg 90%
22:00 +9°C° 0 mm 2 mps 757 mmHg 91%
23:00 +9°C° 0 mm 2 mps 757 mmHg 92%
Show more